Weather History for Altus, OK

Change the Weather History Date:

Wednesday, October 16, 2013

  Actual Average (KLTS) Record (KLTS)
Temperature  
Mean Temperature 49 °F -  
Max Temperature 55 °F 73 °F 90 °F (2011)
Min Temperature 42 °F 49 °F 33 °F (2001)
Degree Days  
Heating Degree Days 16    
Moisture  
Dew Point 37 °F    
Average Humidity 58    
Maximum Humidity 81    
Minimum Humidity 45    
Precipitation  
Precipitation 0.00 in - - ()
Sea Level Pressure  
Sea Level Pressure 30.17 in    
Wind  
Wind Speed 10 mph (NNE)    
Max Wind Speed 14 mph    
Max Gust Speed 18 mph    
Visibility 10 miles    
Events Rain    
Averages and records for this station are not official NWS values.
T = Trace of Precipitation, MM = Missing Value Source: NWS Daily Summary

Daily Weather History Graph

Daily Weather History Graph

Search for Another Location

Airport:

Trip Planner

Search our weather history database for the weather conditions in past years. The results will help you decide how hot, cold, wet, or windy it might be!

Date:

Astronomy

Oct. 16, 2013 Rise Set
Actual Time 7:44 AM CDT 7:01 PM CDT
Civil Twilight 7:18 AM CDT 7:26 PM CDT
Nautical Twilight 6:49 AM CDT 7:55 PM CDT
Astronomical Twilight 6:20 AM CDT 8:24 PM CDT
Moon 5:37 PM CDT (10/16) 5:18 AM CDT (10/16)
Length of Visible Light 12h 07m
Length of Day
11h 16m
Waxing Gibbous, 94% of the Moon is Illuminated
Oct 16
Waxing Gibbous
Oct 18
Full
Oct 26
Last Quarter
Nov 3
New
Nov 9
First Quarter

Hourly Weather History & Observations

Time (CDT) Temp. Windchill Dew Point Humidity Pressure Visibility Wind Dir Wind Speed Gust Speed Precip Events Conditions
12:15 AM 56.3 °F - 39.6 °F 53% 30.17 in 7.0 mi NNE 11.5 mph - N/A   Clear
12:35 AM 55.8 °F - 39.4 °F 54% 30.16 in 10.0 mi NNE 12.7 mph - N/A   Clear
12:55 AM 55.2 °F - 38.7 °F 54% 30.16 in 10.0 mi NNE 12.7 mph - N/A   Clear
1:15 AM 54.1 °F - 38.5 °F 55% 30.16 in 10.0 mi NNE 10.4 mph - N/A   Clear
1:35 AM 53.6 °F - 37.9 °F 55% 30.17 in 10.0 mi NNE 9.2 mph - N/A   Clear
1:55 AM 53.8 °F - 37.8 °F 55% 30.16 in 10.0 mi NNE 11.5 mph - N/A   Clear
2:15 AM 53.4 °F - 37.6 °F 55% 30.16 in 10.0 mi NNE 11.5 mph - N/A   Clear
2:35 AM 52.7 °F - 37.4 °F 56% 30.15 in 10.0 mi NNE 11.5 mph - N/A   Clear
2:55 AM 52.5 °F - 37.2 °F 56% 30.15 in 10.0 mi NNE 11.5 mph - N/A   Clear
3:15 AM 52.0 °F - 37.0 °F 57% 30.16 in 10.0 mi NNE 11.5 mph - N/A   Clear
3:35 AM 51.6 °F - 37.0 °F 58% 30.17 in 10.0 mi NNE 10.4 mph - N/A   Clear
3:55 AM 52.0 °F - 36.5 °F 56% 30.17 in 10.0 mi North 10.4 mph 18.4 mph N/A   Scattered Clouds
4:15 AM 50.9 °F - 37.6 °F 60% 30.18 in 10.0 mi North 8.1 mph - N/A   Mostly Cloudy
4:35 AM 50.9 °F - 37.6 °F 60% 30.18 in 10.0 mi North 11.5 mph - N/A   Scattered Clouds
4:55 AM 51.8 °F - 37.2 °F 58% 30.18 in 10.0 mi North 11.5 mph - N/A   Mostly Cloudy
5:15 AM 51.1 °F - 38.1 °F 61% 30.18 in 10.0 mi North 12.7 mph - N/A   Mostly Cloudy
5:35 AM 51.3 °F - 37.4 °F 59% 30.18 in 10.0 mi North 11.5 mph 17.3 mph N/A   Mostly Cloudy
5:55 AM 51.4 °F - 36.5 °F 57% 30.19 in 10.0 mi North 12.7 mph - N/A   Mostly Cloudy
6:15 AM 51.4 °F - 36.1 °F 56% 30.19 in 10.0 mi NNE 13.8 mph 17.3 mph N/A   Mostly Cloudy
6:35 AM 51.1 °F - 36.0 °F 56% 30.19 in 10.0 mi NNE 13.8 mph - N/A   Mostly Cloudy
6:55 AM 50.9 °F - 36.1 °F 57% 30.19 in 10.0 mi NNE 10.4 mph - N/A   Mostly Cloudy
7:15 AM 50.5 °F - 36.1 °F 58% 30.20 in 10.0 mi NNE 10.4 mph - N/A   Mostly Cloudy
7:35 AM 50.5 °F - 35.8 °F 57% 30.20 in 10.0 mi North 10.4 mph - N/A   Mostly Cloudy
7:55 AM 50.2 °F - 35.6 °F 57% 30.20 in 10.0 mi NNE 9.2 mph - N/A   Mostly Cloudy
8:15 AM 50.2 °F - 35.6 °F 57% 30.20 in 10.0 mi NNE 10.4 mph - N/A   Mostly Cloudy
8:35 AM 50.4 °F - 35.8 °F 57% 30.20 in 10.0 mi NNE 10.4 mph - N/A   Scattered Clouds
8:55 AM 50.5 °F - 35.8 °F 57% 30.20 in 10.0 mi NE 9.2 mph - N/A   Scattered Clouds
9:15 AM 50.9 °F - 36.3 °F 57% 30.22 in 10.0 mi NNE 6.9 mph - N/A   Scattered Clouds
9:35 AM 50.9 °F - 36.7 °F 58% 30.23 in 10.0 mi North 10.4 mph - N/A   Scattered Clouds
9:55 AM 52.0 °F - 36.7 °F 56% 30.23 in 10.0 mi North 9.2 mph - N/A   Clear
10:15 AM 51.6 °F - 36.9 °F 57% 30.22 in 10.0 mi NE 8.1 mph - N/A   Clear
10:35 AM 52.2 °F - 36.9 °F 56% 30.21 in 10.0 mi North 8.1 mph - N/A   Clear
10:55 AM 52.9 °F - 37.0 °F 55% 30.21 in 10.0 mi NNE 4.6 mph - N/A   Clear
11:15 AM 54.5 °F - 37.0 °F 52% 30.20 in 10.0 mi North 10.4 mph - N/A   Clear
11:35 AM 54.1 °F - 36.5 °F 51% 30.20 in 10.0 mi NE 4.6 mph - N/A   Clear
11:55 AM 53.8 °F - 36.9 °F 53% 30.21 in 10.0 mi North 10.4 mph - N/A   Clear
12:15 PM 52.7 °F - 36.5 °F 54% 30.21 in 10.0 mi North 10.4 mph - N/A   Clear
12:35 PM 53.6 °F - 36.5 °F 52% 30.21 in 10.0 mi NNW 8.1 mph - N/A   Clear
12:55 PM 53.2 °F - 35.8 °F 52% 30.21 in 10.0 mi NNW 6.9 mph - N/A   Clear
1:15 PM 55.2 °F - 36.5 °F 49% 30.20 in 10.0 mi NNW 5.8 mph 9.2 mph N/A   Clear
1:35 PM 54.9 °F - 36.0 °F 49% 30.19 in 10.0 mi North 11.5 mph - N/A   Clear
1:55 PM 54.3 °F - 35.4 °F 49% 30.18 in 10.0 mi NNW 11.5 mph - N/A   Scattered Clouds
2:15 PM 55.4 °F - 35.8 °F 48% 30.17 in 10.0 mi North 11.5 mph 17.3 mph N/A   Clear
2:35 PM 55.6 °F - 35.1 °F 46% 30.16 in 10.0 mi NNW 9.2 mph - N/A   Scattered Clouds
2:55 PM 55.2 °F - 34.7 °F 46% 30.16 in 10.0 mi NNW 11.5 mph 17.3 mph N/A   Mostly Cloudy
3:15 PM 55.4 °F - 34.5 °F 45% 30.16 in 10.0 mi NNW 11.5 mph - N/A   Mostly Cloudy
3:35 PM 55.2 °F - 35.1 °F 47% 30.15 in 10.0 mi NNW 12.7 mph 16.1 mph N/A   Mostly Cloudy
3:55 PM 53.6 °F - 34.3 °F 48% 30.15 in 10.0 mi North 12.7 mph - N/A   Mostly Cloudy
4:15 PM 51.8 °F - 39.7 °F 63% 30.15 in 10.0 mi North 9.2 mph - N/A Rain Light Rain
4:35 PM 52.5 °F - 38.5 °F 59% 30.14 in 10.0 mi North 11.5 mph - N/A   Overcast
4:55 PM 53.6 °F - 37.0 °F 53% 30.13 in 10.0 mi North 11.5 mph - N/A   Mostly Cloudy
5:15 PM 53.6 °F - 36.3 °F 52% 30.13 in 10.0 mi NNW 8.1 mph - N/A   Scattered Clouds
5:35 PM 53.1 °F - 36.0 °F 52% 30.12 in 10.0 mi North 6.9 mph - N/A   Mostly Cloudy
5:55 PM 53.4 °F - 36.5 °F 53% 30.12 in 10.0 mi North 8.1 mph - N/A   Scattered Clouds
6:15 PM 53.8 °F - 35.6 °F 50% 30.12 in 10.0 mi NNW 5.8 mph - N/A   Clear
6:35 PM 52.3 °F - 36.1 °F 54% 30.12 in 10.0 mi North 5.8 mph - N/A   Clear
6:55 PM 50.7 °F - 36.7 °F 59% 30.12 in 10.0 mi North 5.8 mph - N/A   Clear
7:15 PM 50.0 °F - 36.9 °F 61% 30.12 in 10.0 mi NNE 3.5 mph - N/A   Clear
7:35 PM 48.7 °F - 36.7 °F 63% 30.13 in 10.0 mi Calm Calm - N/A   Clear
7:55 PM 48.6 °F - 37.0 °F 64% 30.14 in 10.0 mi Calm Calm - N/A   Clear
8:15 PM 47.3 °F - 37.0 °F 68% 30.15 in 10.0 mi Calm Calm - N/A   Clear
8:35 PM 46.2 °F - 37.0 °F 70% 30.15 in 10.0 mi Calm Calm - N/A   Clear
8:55 PM 47.5 °F - 36.9 °F 67% 30.16 in 10.0 mi Calm Calm - N/A   Clear
9:15 PM 46.9 °F - 36.9 °F 68% 30.15 in 10.0 mi Calm Calm - N/A   Clear
9:35 PM 45.5 °F 44.2 °F 36.9 °F 72% 30.15 in 10.0 mi ESE 3.5 mph - N/A   Clear
9:55 PM 43.7 °F 40.3 °F 36.5 °F 76% 30.14 in 10.0 mi SE 5.8 mph - N/A   Clear
10:15 PM 43.7 °F 41.1 °F 36.7 °F 76% 30.15 in 10.0 mi ESE 4.6 mph - N/A   Clear
10:35 PM 43.2 °F 41.5 °F 36.0 °F 76% 30.14 in 10.0 mi SE 3.5 mph - N/A   Clear
10:55 PM 43.0 °F 41.3 °F 36.1 °F 77% 30.14 in 10.0 mi SE 3.5 mph - N/A   Clear
11:15 PM 42.6 °F 39.9 °F 36.5 °F 79% 30.14 in 10.0 mi ESE 4.6 mph - N/A   Clear
11:35 PM 42.8 °F 41.1 °F 36.5 °F 78% 30.13 in 10.0 mi ESE 3.5 mph - N/A   Clear
11:55 PM 42.3 °F 39.4 °F 36.7 °F 81% 30.12 in 10.0 mi ESE 4.6 mph - N/A   Clear